Regional Weather Roundup
Issued by NWS Mt. Holly, NJ

Home | Current Version | Previous Version | Text Only | Print | Product List | Glossary On
Versions: 1 2 3 4 5 6 7 8 9 10 11 12 13 14 15 16 17 18 19 20 21 22 23 24 25 26 27
000
ASUS41 KPHI 311612
RWRPHI

REGIONAL WEATHER ROUNDUP
NATIONAL WEATHER SERVICE MOUNT HOLLY NJ
1200 PM EDT WED AUG 31 2016

NOTE:  "FAIR" INDICATES FEW OR NO CLOUDS BELOW 12,000 FEET WITH NO
SIGNIFICANT WEATHER AND/OR OBSTRUCTIONS TO VISIBILITY.

 * = STATION DOES NOT REPORT PRECIPITATION (E.G. RAIN, SNOW, ETC.)
        OR FOG.

NJZ015>026-311700-
SOUTHERN NEW JERSEY

CITY           SKY/WX    TMP DP  RH WIND       PRES   REMARKS
POMONA         SUNNY     87  64  46 W8        29.98F
WILDWOOD*        N/A     80  70  71 W7        30.00S
MILLVILLE      SUNNY     84  69  60 VRB5      29.99F
WRIGHTSTOWN    MOSUNNY   85  67  55 W7        29.95F
MOUNT HOLLY    SUNNY     84  62  47 VRB5      29.97F
TRENTON        SUNNY     85  62  46 NW7       29.97F

$$
NJZ001>014-311700-
NORTHERN NEW JERSEY

CITY           SKY/WX    TMP DP  RH WIND       PRES   REMARKS
SUSSEX         CLOUDY    79  67  66 VRB6      29.98F
ANDOVER*         N/A     80  63  55 VRB5      29.99F
MORRISTOWN     PTSUNNY   82  66  57 SW8       29.97F
NEWARK         PTSUNNY   86  63  45 W9        29.96F
TETERBORO      MOSUNNY   84  62  47 SW7       29.95F
CALDWELL       MOSUNNY   83  66  56 SW5       29.97F
SOMERVILLE     MOSUNNY   83  63  50 VRB6      29.96F
ALLAIRE*       SUNNY     85  63  47 CALM      29.99F
TOMS RIVER*    MOSUNNY   88  63  43 W8        29.99F

$$
PAZ043-044-047-054-055-060>062-066>071-311700-
EASTERN PENNSYLVANIA

CITY           SKY/WX    TMP DP  RH WIND       PRES   REMARKS
PHILADELPHIA   MOSUNNY   85  63  47 SW8       29.98F
NORTH PHILA    MOSUNNY   87  64  46 VRB7      29.99F
BLUE BELL*     MOSUNNY   84  64  51 S3        29.97F
DOYLESTOWN     CLOUDY    85  64  49 VRB5      29.98F
QUAKERTOWN*    MOSUNNY   84  63  48 W8        29.99F
POTTSTOWN      MOSUNNY   85  64  49 CALM      29.99F
LANCASTER      SUNNY     84  67  56 W5        29.98F
COATESVILLE    SUNNY     84  66  54 VRB6      30.01F
READING        SUNNY     85  66  53 CALM      29.97F
ALLENTOWN      CLOUDY    85  63  47 W8        29.97F
MOUNT POCONO   CLOUDY    74  62  66 SW7       30.04F
WILKES BARRE   CLOUDY    76  64  66 W3        29.99F

$$
DEZALL-MDZ008-012-015-019-020-311700-
DELAWARE AND EASTERN MARYLAND

CITY           SKY/WX    TMP DP  RH WIND       PRES   REMARKS
WILMINGTON     SUNNY     84  71  65 SE10      29.99F
DOVER          SUNNY     85  80  86 VRB5      29.97F HX  99
GEORGETOWN     PTSUNNY   86  66  51 VRB3      30.00F
EASTON         PTSUNNY   86  77  74 SW8       30.02F HX  97
PATUXENT       MOSUNNY   84  72  67 E7        29.98F
OCEAN CITY     SUNNY     82  73  74 SE8       30.00S
WALLOPS ISLAND MOSUNNY   86  71  60 VRB5      30.00F HX  91
CAMBRIDGE      SUNNY     82  68  61 CALM      29.98F
SALISBURY      MOSUNNY   86  67  52 NE5       29.98F

$$
PAZ001-021-NYZ056-072-MDZ011-DCZ001-311700-
OTHER NEARBY LOCATIONS

CITY           SKY/WX    TMP DP  RH WIND       PRES   REMARKS
HARRISBURG     CLOUDY    85  69  58 CALM      29.95F
STATE COLLEGE  SUNNY     72  66  83 CALM      30.01F
WILLIAMSPORT   MOSUNNY   72  63  73 CALM      29.98F
BINGHAMTON     CLOUDY    68  62  81 SW5       30.00F
NEW YORK CITY  MOSUNNY   85  67  54 MISG      29.99F
BALTIMORE      MOSUNNY   86  66  51 S6        29.97F
WASHINGTON DC  MOSUNNY   87  71  58 S14       29.98F HX  93

$$




USA.gov is the U.S. government's official web portal to all federal, state and local government web resources and services.